Temp_Advection
nan nan nan nan nan nan nan nan nan nan nan nan nan nan nan nan nan nan nan nan nan nan nan nan nan nan nan nan nan nan nan nan nan nan nan nan nan nan nan nan nan nan nan nan nan nan nan
nan 0 0 0 -0 -0 -0 -0 -0 -0 -0 -1 -1 -0 -1 -1 -1 -1 -0 -0 -0 -0 0 -0 -0 0 1 -0 -1 0 0 0 0 0 0 0 0 0 0 0 -0 -0 0 -0 -0 0 nan
nan -0 -0 -0 -0 -0 -0 -1 -1 -1 -1 -1 -1 -1 -1 -1 -1 -1 -1 -0 -1 -1 -0 -0 -0 0 -1 -1 0 0 0 0 0 0 0 0 0 0 0 -0 -0 0 0 -0 -0 0 nan
nan -0 -0 -0 -0 -0 -0 -0 -0 -1 -0 -1 -1 -1 -1 -1 -1 -1 -1 -0 -0 -0 -0 -0 -0 -0 -0 -0 0 0 0 0 0 0 0 0 0 0 0 -0 -0 -0 -0 -0 -0 0 nan
nan -0 -0 -0 -0 -0 -0 -0 -0 -0 -0 -0 -1 -1 -1 -1 -1 -1 -1 -1 -0 -0 0 0 0 -0 -0 -0 -0 0 0 0 0 0 0 0 0 0 0 -0 -0 -0 0 0 -0 -0 nan
nan -0 -0 -0 -0 -1 -1 -1 -1 -1 -1 -1 -1 -1 -1 -1 -1 -1 -1 -1 -1 0 0 0 0 -0 -0 -0 0 0 0 0 0 0 0 0 0 -0 -0 0 -0 0 0 -0 -0 -0 nan
nan -0 -0 -0 -0 -0 -1 -1 -1 -1 -1 -1 -1 -1 -1 -1 -1 -1 -2 -2 -1 -0 -0 -0 -0 -0 -0 0 0 0 0 0 0 0 0 0 -0 -0 -1 -0 0 0 0 -0 -0 0 nan
nan -0 -0 -0 -1 -1 -1 -1 -1 -1 -1 -1 -1 -1 -1 -1 -0 -1 -1 -1 -1 -0 -2 -3 0 1 -0 -0 -0 0 0 0 0 0 0 -0 -0 -0 0 -0 0 0 -0 -0 -0 0 nan
nan -0 -0 -0 -0 0 -0 -1 -1 -1 -1 -1 -1 -1 -1 -2 -0 -0 -0 -0 0 0 -0 -1 -0 -0 -0 0 0 -0 0 0 0 -0 0 0 -0 -0 0 -0 0 0 -0 -0 -0 0 nan
nan -0 -0 -0 -1 -0 0 0 -0 -1 -1 -1 -1 -1 -1 -2 -0 -0 -0 0 0 0 0 -1 -0 -0 0 0 -0 0 0 0 0 0 -0 -0 -0 -0 0 0 0 -0 -0 -0 0 -0 nan
nan -1 -1 -1 -0 -0 -1 -0 -0 -0 -0 -1 -0 -0 -0 -1 -1 -1 -0 0 0 0 0 0 0 0 0 0 -0 0 0 0 0 0 0 -0 0 0 -0 0 -0 -0 -0 0 0 0 nan
nan -1 -1 -1 -1 0 0 -0 -1 -0 -0 -1 -1 -0 -0 -0 -0 -0 -0 -0 -0 -0 -1 -0 -0 -0 -0 0 0 0 0 0 0 0 0 -0 -0 -0 -0 -0 -0 0 -0 -0 -0 0 nan
nan -1 -1 -1 -1 -1 -0 -0 -0 -0 -0 -1 -1 -0 -0 -0 -0 -0 -0 -0 -0 0 0 -0 -0 -0 -0 -0 0 0 0 0 0 0 0 -0 0 -0 0 -0 -0 0 -0 -0 0 -0 nan
nan -1 -1 -1 -0 -0 -1 -0 -0 -0 -0 -0 -1 -0 -0 -0 -0 -0 0 -0 -0 -0 0 -0 -0 -0 -0 -0 -0 0 0 0 -0 -0 -0 0 -0 0 0 0 0 0 0 -0 0 -0 nan
nan -0 -0 -0 0 0 -0 -0 -0 -0 -0 -1 -1 -1 0 0 -0 -0 0 0 -0 0 0 -0 -0 -0 -0 0 -0 -0 0 -0 -0 0 -0 -0 -0 -0 -0 -0 -0 -0 -0 -0 0 -0 nan
nan -0 -0 -0 0 0 0 -0 -0 -0 -0 -0 -1 -1 -0 0 -0 -0 0 -0 -0 -0 -0 -0 0 -0 -0 -0 -0 -0 -0 -0 0 -0 0 0 -0 -0 -0 -0 0 0 0 -0 -0 -0 nan
nan -0 -0 -0 -0 0 0 0 -0 -0 -0 -0 -1 -1 -0 -0 0 0 0 -0 -0 -0 0 0 0 -0 -0 -0 0 -0 -0 -0 0 0 -0 -0 0 -0 -0 0 0 0 0 0 0 0 nan
nan -1 -0 -0 -0 -0 0 0 0 0 -0 -0 -0 -0 -0 0 0 0 -0 -0 -0 -0 -0 0 0 0 -0 0 0 0 -0 0 0 0 0 0 0 0 -0 -0 -0 -0 -0 0 0 0 nan
nan -1 -1 -0 -0 -0 0 -0 0 0 0 -0 -0 -0 -0 0 0 -0 -0 -0 -0 -0 -0 0 0 -0 -0 0 0 0 -0 -0 -0 0 -0 0 0 -0 -0 -0 -0 0 -0 -0 0 0 nan
nan -0 -1 -0 -0 -0 -0 0 0 0 0 -0 0 -0 -0 0 -0 -0 -0 -0 -0 -0 0 -0 -0 -0 0 0 0 -0 -0 -0 0 0 0 -0 0 -0 -0 0 -0 -0 0 0 0 0 nan
nan -0 -0 -1 -1 -1 -0 0 0 0 1 0 0 -0 0 -0 -0 -0 0 -0 -0 -0 -0 -0 -0 0 0 0 0 0 -0 -0 -0 -0 -0 0 0 0 0 0 -0 0 0 0 0 -0 nan
nan -0 -0 -0 -1 -0 -0 -0 0 0 0 0 -0 -0 0 -0 -0 0 -0 -0 -0 0 0 0 -0 -0 0 -0 -0 0 -0 -0 -0 -0 0 0 -0 0 -0 -0 0 -0 0 0 0 0 nan
nan -0 -0 -0 -0 -0 -0 -0 0 0 0 0 0 0 -0 -0 0 -0 -0 -0 -0 0 -0 -0 0 0 -0 0 0 0 0 0 0 0 -0 -0 0 -0 -0 0 -0 -0 0 0 -0 -1 nan
nan -0 0 -0 -0 -0 -0 -0 0 0 0 -0 0 0 0 0 -0 -0 -0 0 0 -0 -0 -0 0 0 0 0 0 0 0 0 0 -0 -0 0 0 0 0 0 0 -0 -0 -0 -0 -0 nan
nan -0 0 0 -0 -0 -0 -1 0 0 0 -0 0 1 0 -0 0 0 0 -0 -0 -0 0 0 -1 -0 0 0 0 0 0 -0 -0 -0 -0 0 -0 0 0 -0 0 0 -0 -0 -0 -0 nan
nan -0 0 0 -0 -0 -0 -0 -0 1 0 -0 -0 0 0 0 -0 -0 0 0 0 -0 -0 -0 -0 0 0 -0 0 0 -0 -0 0 0 0 0 -0 0 0 -0 1 -1 -0 -0 0 0 nan
nan -0 -0 0 0 0 -0 -0 -0 -0 0 0 -0 -0 0 0 -0 0 -0 -0 0 0 -0 0 0 0 0 0 -0 0 0 0 0 0 0 0 0 0 0 1 -0 -0 -1 -0 0 0 nan
nan -0 -0 -0 -0 0 0 -0 -0 -0 -0 0 -0 -0 0 -0 -0 0 0 0 0 -0 -0 0 0 0 0 0 0 0 0 0 0 0 0 0 0 0 0 0 1 0 0 -0 -1 -0 nan
nan nan nan nan nan nan nan nan nan nan nan nan nan nan nan nan nan nan nan nan nan nan nan nan nan nan nan nan nan nan nan nan nan nan nan nan nan nan nan nan nan nan nan nan nan nan nan
Wind_Speed
12 14 15 16 16 17 18 19 20 21 22 22 23 23 23 24 24 24 24 24 25 24 24 25 24 21 19 9 14 17 13 11 9 9 9 9 9 6 5 5 3 4 4 8 14 15 10
13 14 15 16 17 18 19 21 21 22 22 23 24 24 24 25 25 25 24 23 24 25 24 24 23 20 14 6 12 13 11 11 11 9 8 10 5 9 6 5 5 3 6 9 8 11 9
13 14 15 16 17 19 20 22 23 24 25 26 26 27 26 27 27 27 26 24 24 22 23 22 20 16 15 22 18 14 11 10 10 10 9 10 10 9 2 4 4 5 7 6 7 6 7
15 16 18 19 21 22 23 23 24 25 26 26 27 27 27 27 28 29 28 27 26 26 24 20 16 13 11 12 12 12 13 13 11 10 9 9 8 8 4 4 5 3 0 4 1 5 4
18 19 20 21 22 23 24 25 26 27 28 28 29 29 29 29 29 29 30 28 27 26 20 16 12 7 9 7 7 7 10 9 8 8 7 5 6 4 2 3 4 3 5 5 9 8 2
18 18 20 22 23 24 26 27 28 29 29 28 28 29 28 28 29 29 29 26 23 19 13 10 9 5 7 3 4 5 7 9 7 8 5 5 4 2 2 4 6 7 5 6 7 2 4
20 22 23 24 26 27 27 26 26 26 26 27 29 30 30 28 26 26 26 22 8 4 5 10 13 17 21 14 10 8 10 11 7 5 5 2 3 9 14 12 2 2 3 6 4 4 4
21 23 25 26 25 25 25 25 25 25 24 24 26 27 28 27 22 20 16 7 7 10 16 20 25 27 26 18 5 8 10 9 7 6 4 3 7 10 5 4 6 3 5 14 8 5 6
24 24 25 25 26 25 24 24 24 24 25 25 26 28 29 29 18 8 11 10 15 13 6 11 4 4 0 3 7 8 14 7 4 6 7 8 5 5 6 4 5 4 6 7 11 5 5
24 25 25 25 24 24 24 23 23 24 24 24 24 27 28 31 6 16 7 9 14 11 3 6 2 1 2 2 2 5 12 6 3 7 6 6 4 8 5 7 9 5 8 13 6 3 4
24 24 25 25 24 22 22 22 22 24 23 25 23 25 26 24 22 14 10 11 12 6 6 0 1 1 2 3 2 4 9 8 6 6 5 7 5 6 5 7 8 9 5 5 4 4 3
25 24 24 24 24 23 20 21 22 23 24 24 23 23 25 23 18 10 7 7 7 4 7 1 0 1 1 2 2 4 4 4 1 3 3 8 2 4 7 5 8 3 3 3 4 3 4
24 23 22 22 22 22 21 18 23 24 23 23 22 21 22 24 15 11 8 4 4 3 6 5 4 5 5 3 2 3 3 3 5 1 4 2 4 3 2 1 4 3 5 3 3 0 7
23 23 23 23 23 22 23 17 22 24 21 23 22 22 19 16 10 6 2 3 4 3 3 3 4 4 4 3 1 1 1 3 3 2 2 3 5 4 2 4 4 5 7 5 6 3 3
23 23 25 25 25 23 24 22 22 25 23 23 24 22 18 8 6 2 2 1 6 5 1 5 6 2 4 1 1 1 4 3 2 6 7 3 5 3 1 2 0 2 3 1 1 1 1
24 23 23 26 25 24 25 26 25 26 23 22 24 24 6 3 2 4 2 5 4 3 2 2 1 1 3 4 4 4 2 2 1 1 1 1 4 2 3 0 1 4 2 1 2 3 5
24 24 23 25 25 25 24 26 26 26 25 21 18 14 2 1 4 5 4 6 4 6 4 5 3 4 4 3 2 2 4 3 2 2 2 1 3 3 3 2 4 1 2 1 2 4 6
27 26 25 26 23 24 26 24 23 23 22 19 9 3 1 1 2 4 2 4 4 4 1 3 3 6 5 3 5 5 7 9 3 3 3 2 2 5 8 6 3 2 3 3 5 3 1
28 26 25 26 26 25 24 23 22 20 20 18 8 12 15 7 4 4 3 4 4 3 3 3 3 6 3 3 4 5 2 2 1 2 4 4 1 3 5 3 4 3 2 3 2 1 6
28 27 26 27 28 27 25 24 23 20 14 14 6 4 4 9 11 4 4 7 6 6 5 5 4 4 3 4 6 5 4 4 7 7 4 3 5 7 8 3 1 6 5 2 4 5 7
28 28 28 28 29 29 27 26 23 21 16 13 7 4 4 3 4 6 2 4 3 3 3 2 4 4 4 6 5 8 4 4 4 5 3 4 5 6 7 8 4 11 12 11 10 11 9
30 31 30 30 29 28 29 27 26 23 20 21 7 5 4 5 8 5 7 7 16 15 7 6 5 8 7 5 5 2 4 2 3 3 6 4 3 5 7 9 10 13 14 12 11 10 8
31 31 30 31 31 29 29 28 27 27 23 23 19 26 19 10 5 4 5 8 12 9 13 22 13 6 11 11 15 18 16 17 9 4 4 4 3 3 8 2 2 5 6 2 4 5 2
32 29 28 28 32 33 31 31 30 28 25 29 30 19 9 6 7 10 6 10 14 15 16 15 13 7 5 6 8 12 15 16 13 14 13 6 4 3 3 1 4 1 3 3 10 7 5
32 32 32 31 27 29 32 31 31 30 28 26 32 25 8 4 10 6 12 10 17 21 13 14 22 20 11 3 3 5 4 5 5 9 9 11 8 4 3 4 2 3 2 3 2 3 3
33 33 31 31 30 29 27 28 31 30 29 27 28 29 18 5 9 23 6 10 6 8 8 8 16 13 9 4 3 3 4 4 5 4 2 5 9 5 2 3 6 3 2 8 2 2 7
32 30 29 29 28 28 28 28 28 27 24 28 29 26 23 6 6 10 5 4 5 4 7 4 3 5 11 3 3 5 5 2 4 3 4 2 2 11 9 5 2 3 11 4 4 2 12
26 26 26 25 26 26 27 28 26 24 22 23 30 29 24 8 16 17 18 17 16 10 8 5 2 3 3 4 3 2 3 5 2 2 4 5 3 2 2 3 4 19 3 0 5 7 11
23 23 22 23 25 24 26 25 25 22 22 23 28 18 17 23 15 10 13 18 25 27 23 7 6 5 6 1 2 1 2 2 4 4 6 2 3 2 4 3 5 16 15 9 10 11 12
Wind_Direction
351 356 357 356 355 355 353 350 348 346 344 341 339 337 335 332 330 329 327 326 322 320 319 318 319 311 305 287 267 281 280 264 258 257 248 230 207 195 203 210 253 221 271 262 265 262 245
354 352 352 350 348 346 343 339 338 336 334 332 331 330 328 326 325 324 324 323 319 315 311 310 309 304 288 254 274 272 266 252 247 248 245 231 217 225 255 233 177 251 263 274 275 259 245
348 344 342 339 336 333 333 332 331 330 330 329 328 327 326 324 322 320 319 320 314 311 308 306 302 293 269 270 267 259 257 255 249 243 238 240 234 222 216 286 283 284 311 309 230 233 228
335 333 332 332 331 331 330 329 328 327 327 325 324 322 321 320 318 316 316 316 312 309 305 299 296 280 256 261 250 252 251 244 246 254 248 237 225 234 230 288 322 337 13 309 329 139 248
333 332 331 330 329 329 328 327 326 325 324 324 323 321 320 318 317 316 315 318 315 307 298 295 287 261 264 265 252 244 232 233 239 232 222 215 204 212 154 103 350 347 249 228 308 207 114
328 329 330 330 330 329 328 328 327 326 324 323 321 320 320 318 317 316 318 322 316 299 290 277 262 264 243 278 218 217 206 208 206 194 184 187 180 104 44 120 230 230 228 247 243 216 207
331 331 331 331 330 329 327 326 326 328 329 329 329 329 327 325 322 320 324 344 341 305 295 256 271 257 262 255 255 239 228 204 186 182 186 185 128 219 208 206 161 188 216 260 266 234 250
332 332 330 328 327 325 326 329 333 335 337 337 335 333 330 327 325 324 336 25 19 311 301 290 271 267 261 264 261 229 199 184 173 197 131 46 234 246 230 216 246 279 290 275 282 256 199
330 328 327 326 327 329 332 332 332 331 333 335 336 337 336 335 329 327 359 11 348 331 284 300 259 263 241 199 212 224 196 190 173 166 187 183 202 92 163 193 215 226 224 255 253 312 252
330 329 327 328 327 325 324 321 323 326 328 329 330 333 336 336 343 332 334 339 337 335 335 278 275 263 191 174 232 204 196 193 194 200 183 227 251 220 185 226 169 251 224 249 259 35 251
331 330 331 330 328 329 329 327 325 321 319 321 326 330 333 337 327 322 309 323 331 338 343 359 226 199 226 218 134 208 187 189 196 189 141 244 193 191 186 209 157 219 165 175 188 198 343
333 332 329 329 328 324 324 329 326 325 319 317 320 324 327 329 323 319 317 323 327 46 254 306 41 307 285 214 227 160 197 204 160 184 232 244 260 221 212 198 189 110 130 76 63 118 266
333 333 333 332 335 336 330 328 326 326 326 324 320 323 323 321 314 301 297 320 40 161 347 347 337 7 338 280 271 189 189 197 198 149 242 298 224 267 164 187 181 153 86 315 298 176 234
329 330 332 333 333 337 338 332 327 330 326 325 321 322 319 311 300 317 217 68 194 240 269 338 336 304 234 15 264 314 290 264 209 69 105 217 306 180 176 215 198 184 167 177 232 212 254
318 320 323 327 328 329 332 334 327 328 327 322 321 324 321 296 298 336 256 158 218 213 280 357 317 310 302 260 313 348 218 224 201 177 190 183 263 287 294 329 137 157 194 184 275 145 63
315 315 315 316 321 321 322 326 331 334 326 323 326 325 311 307 261 193 178 246 262 245 354 52 223 301 288 312 345 22 274 241 135 89 248 203 286 283 297 13 212 175 178 86 33 282 247
313 315 310 308 311 315 316 318 324 327 332 328 328 319 244 12 196 209 217 230 270 262 221 201 216 263 241 275 233 253 262 290 234 171 24 107 184 282 349 192 194 263 244 222 183 204 256
308 306 306 308 307 307 309 310 316 324 330 326 323 305 251 246 284 211 228 223 309 284 258 274 218 230 227 241 268 237 233 209 208 162 186 197 176 250 227 245 38 1 298 217 227 254 280
307 306 304 302 302 302 305 308 311 314 322 327 292 274 277 252 233 236 259 267 268 269 254 257 254 209 198 239 253 218 285 2 23 194 183 184 235 332 318 24 13 109 114 101 120 213 237
308 306 303 297 298 295 294 297 298 299 302 306 293 298 275 216 248 216 265 268 254 255 255 257 263 257 280 261 238 264 233 246 202 206 188 94 203 196 240 221 87 285 253 191 178 264 277
307 306 303 302 300 294 288 292 287 292 285 268 212 252 251 288 257 259 260 330 301 301 287 297 302 228 269 281 233 230 259 293 260 279 313 196 218 204 247 256 258 261 262 264 251 247 253
305 304 303 300 300 297 292 292 286 288 282 254 222 235 231 262 278 254 229 233 260 264 225 245 228 253 223 228 277 279 330 250 303 269 187 184 258 194 267 235 227 254 266 255 247 262 269
307 306 302 299 298 297 297 293 288 284 282 263 239 240 251 243 212 222 230 236 241 234 246 241 251 236 250 240 240 265 260 256 240 215 229 201 224 202 258 209 81 305 251 173 101 67 53
311 312 311 303 299 295 293 288 288 282 279 264 257 234 222 242 222 243 237 245 259 253 254 266 265 227 230 282 293 286 263 253 247 241 235 237 212 234 242 110 226 48 40 75 100 88 31
307 307 305 300 304 305 297 294 293 290 283 276 263 246 233 251 235 240 250 252 259 253 260 265 262 261 248 279 248 268 311 343 256 240 230 225 237 245 223 188 109 193 44 64 125 131 11
303 300 301 302 302 298 303 301 296 291 291 284 274 262 238 246 226 235 238 240 260 279 284 230 267 263 204 223 191 234 227 212 289 343 211 200 231 232 174 235 220 64 16 4 9 273 10
310 308 305 302 305 303 306 304 301 300 289 294 287 280 250 257 231 199 195 246 239 277 291 276 208 210 203 195 219 233 242 184 231 197 186 197 207 222 224 233 105 323 309 305 137 240 331
316 315 310 307 309 304 305 308 306 300 294 292 289 280 255 252 270 226 236 228 243 247 265 272 231 203 180 216 229 225 203 217 164 221 194 171 202 202 151 208 223 344 79 25 346 339 338
329 325 319 315 313 309 311 309 309 306 302 294 292 279 291 250 268 267 253 260 259 261 250 240 246 181 207 162 208 227 254 182 190 224 20 108 348 64 27 90 65 56 69 42 19 357 346
Height
1562 1560 1557 1555 1552 1550 1547 1544 1541 1538 1535 1531 1528 1524 1520 1517 1513 1510 1507 1504 1500 1497 1494 1490 1488 1486 1484 1484 1478 1475 1475 1475 1476 1477 1478 1479 1480 1481 1482 1480 1480 1479 1475 1472 1470 1470 1469
1562 1560 1558 1555 1553 1550 1548 1544 1541 1538 1535 1531 1527 1523 1519 1515 1511 1507 1504 1500 1497 1494 1490 1487 1485 1483 1481 1480 1471 1470 1470 1471 1472 1473 1475 1476 1477 1478 1479 1478 1478 1474 1471 1469 1466 1466 1467
1562 1559 1557 1554 1551 1548 1545 1542 1539 1536 1532 1528 1524 1520 1516 1512 1508 1504 1500 1497 1492 1489 1485 1483 1481 1479 1476 1470 1467 1467 1469 1470 1471 1471 1472 1474 1476 1478 1477 1475 1472 1471 1471 1466 1460 1461 1462
1561 1559 1556 1553 1550 1547 1543 1540 1536 1533 1530 1526 1521 1517 1513 1509 1505 1500 1496 1493 1488 1483 1480 1477 1475 1473 1469 1464 1463 1463 1465 1466 1468 1469 1471 1472 1472 1474 1475 1473 1472 1472 1472 1474 1459 1459 1458
1561 1558 1555 1552 1549 1546 1543 1539 1535 1531 1527 1523 1519 1514 1510 1505 1500 1495 1491 1487 1483 1478 1475 1473 1472 1470 1464 1462 1461 1462 1463 1464 1466 1467 1469 1470 1472 1472 1473 1477 1481 1478 1479 1476 1467 1457 1458
1559 1556 1553 1550 1547 1543 1540 1536 1532 1528 1524 1520 1515 1510 1506 1501 1496 1491 1486 1482 1477 1473 1471 1470 1468 1470 1462 1460 1459 1460 1461 1463 1464 1466 1468 1469 1470 1473 1477 1478 1482 1476 1479 1474 1469 1457 1458
1557 1554 1551 1548 1544 1540 1537 1533 1530 1526 1521 1516 1511 1506 1501 1497 1493 1488 1483 1479 1477 1473 1470 1466 1462 1459 1456 1456 1457 1458 1459 1461 1463 1465 1468 1468 1473 1474 1465 1464 1463 1465 1470 1470 1461 1456 1457
1555 1552 1549 1545 1542 1539 1535 1530 1526 1523 1519 1515 1510 1504 1499 1494 1490 1487 1485 1482 1484 1484 1467 1458 1453 1452 1451 1453 1455 1455 1457 1460 1460 1464 1465 1470 1471 1459 1461 1465 1467 1467 1471 1466 1458 1453 1456
1553 1550 1547 1543 1539 1536 1532 1528 1524 1521 1516 1513 1508 1503 1498 1492 1488 1487 1485 1486 1484 1481 1476 1452 1450 1449 1448 1449 1449 1450 1453 1454 1456 1462 1463 1465 1456 1454 1457 1460 1464 1467 1468 1464 1461 1453 1451
1551 1548 1544 1541 1537 1533 1529 1525 1522 1518 1515 1511 1507 1502 1497 1490 1490 1487 1486 1485 1483 1480 1481 1457 1450 1449 1449 1448 1449 1448 1449 1452 1454 1455 1459 1459 1449 1450 1453 1454 1458 1464 1451 1453 1456 1459 1463
1549 1545 1542 1538 1534 1530 1526 1523 1519 1516 1513 1508 1505 1501 1497 1493 1490 1487 1486 1484 1483 1483 1489 1452 1449 1450 1449 1451 1449 1448 1447 1449 1449 1450 1453 1448 1446 1447 1448 1444 1446 1447 1445 1449 1450 1457 1458
1547 1543 1540 1536 1531 1528 1524 1521 1517 1513 1510 1506 1502 1499 1495 1493 1489 1486 1484 1484 1483 1487 1485 1450 1448 1448 1448 1446 1447 1447 1447 1448 1447 1448 1448 1444 1442 1440 1437 1436 1438 1439 1442 1448 1458 1459 1463
1544 1541 1537 1533 1529 1525 1521 1518 1514 1511 1507 1502 1499 1496 1492 1490 1487 1484 1483 1484 1492 1491 1456 1458 1456 1453 1454 1447 1446 1447 1448 1450 1450 1453 1452 1444 1441 1435 1434 1437 1438 1438 1446 1458 1454 1470 1441
1541 1538 1536 1532 1528 1524 1521 1517 1512 1508 1504 1500 1496 1493 1490 1486 1484 1483 1483 1485 1488 1463 1461 1460 1458 1455 1453 1450 1447 1447 1448 1449 1445 1447 1455 1454 1445 1436 1433 1434 1436 1441 1442 1448 1441 1450 1440
1539 1536 1533 1530 1527 1523 1519 1515 1510 1507 1503 1498 1493 1490 1486 1484 1483 1483 1486 1490 1472 1466 1462 1463 1458 1457 1455 1450 1451 1448 1448 1448 1443 1444 1445 1451 1446 1434 1433 1432 1433 1441 1443 1437 1439 1444 1456
1535 1532 1530 1527 1524 1521 1518 1514 1509 1505 1501 1497 1491 1486 1483 1482 1482 1483 1484 1478 1470 1465 1463 1462 1464 1459 1458 1456 1453 1453 1449 1444 1443 1443 1443 1443 1448 1435 1433 1432 1432 1433 1434 1441 1446 1447 1439
1531 1527 1525 1523 1520 1517 1514 1511 1508 1504 1500 1496 1492 1487 1483 1482 1480 1481 1483 1473 1465 1460 1462 1463 1462 1461 1458 1457 1454 1454 1448 1444 1442 1442 1442 1443 1447 1443 1437 1434 1434 1436 1436 1436 1439 1439 1431
1526 1523 1521 1518 1515 1513 1510 1507 1504 1501 1498 1494 1492 1491 1483 1483 1484 1478 1477 1469 1466 1462 1460 1459 1458 1458 1458 1455 1455 1454 1449 1442 1441 1442 1443 1444 1448 1450 1445 1435 1435 1435 1435 1435 1439 1437 1441
1520 1518 1516 1514 1511 1508 1507 1504 1503 1500 1497 1494 1490 1484 1479 1479 1481 1475 1470 1468 1465 1462 1460 1458 1456 1454 1453 1453 1456 1450 1446 1443 1442 1443 1444 1443 1450 1456 1441 1440 1438 1439 1441 1444 1448 1450 1445
1515 1512 1510 1508 1505 1503 1501 1499 1498 1497 1495 1493 1493 1484 1476 1475 1473 1472 1470 1465 1464 1458 1457 1456 1453 1452 1452 1454 1454 1449 1447 1442 1441 1441 1440 1441 1447 1445 1443 1437 1440 1441 1440 1443 1447 1447 1441
1510 1507 1505 1502 1499 1496 1495 1493 1492 1491 1491 1489 1486 1481 1476 1476 1470 1470 1472 1469 1466 1463 1459 1457 1455 1452 1455 1451 1449 1446 1445 1442 1439 1439 1441 1442 1442 1444 1442 1442 1443 1441 1441 1441 1443 1441 1441
1504 1501 1499 1497 1494 1492 1490 1488 1486 1486 1486 1481 1479 1477 1474 1472 1470 1469 1466 1462 1461 1459 1459 1455 1455 1450 1452 1451 1449 1446 1447 1446 1444 1440 1439 1441 1439 1441 1443 1438 1438 1436 1432 1433 1434 1433 1435
1497 1493 1490 1488 1486 1485 1483 1482 1481 1480 1480 1473 1467 1468 1469 1461 1460 1460 1458 1455 1451 1452 1448 1445 1445 1446 1444 1443 1443 1443 1443 1443 1440 1442 1441 1438 1437 1436 1433 1433 1441 1447 1438 1433 1442 1451 1454
1491 1487 1484 1480 1478 1476 1474 1473 1471 1470 1471 1468 1461 1461 1458 1449 1455 1454 1452 1452 1450 1447 1445 1442 1441 1442 1440 1439 1440 1439 1438 1435 1434 1431 1433 1431 1432 1431 1429 1444 1437 1442 1443 1444 1446 1456 1459
1483 1481 1478 1475 1473 1470 1467 1466 1465 1463 1461 1459 1455 1453 1450 1445 1447 1447 1446 1444 1440 1440 1440 1439 1435 1436 1435 1437 1436 1435 1439 1436 1430 1428 1427 1429 1431 1428 1428 1446 1439 1442 1447 1450 1451 1460 1462
1477 1473 1471 1469 1466 1463 1461 1458 1457 1456 1453 1449 1448 1446 1441 1440 1437 1437 1440 1440 1440 1437 1434 1429 1431 1432 1430 1430 1430 1428 1432 1429 1430 1429 1426 1427 1427 1425 1425 1420 1416 1450 1452 1453 1452 1460 1462
1470 1466 1464 1462 1460 1458 1456 1453 1451 1448 1446 1446 1441 1441 1438 1431 1429 1433 1434 1433 1435 1435 1431 1426 1427 1427 1425 1424 1425 1424 1426 1425 1424 1424 1428 1427 1423 1419 1418 1418 1449 1458 1455 1452 1451 1468 1463
1463 1460 1458 1457 1454 1452 1450 1448 1445 1442 1440 1439 1435 1434 1433 1427 1426 1428 1428 1427 1428 1430 1429 1425 1425 1422 1425 1424 1419 1414 1417 1422 1426 1426 1426 1422 1424 1420 1422 1417 1424 1457 1454 1451 1468 1464 1463
1459 1456 1454 1452 1449 1448 1446 1443 1439 1437 1435 1433 1428 1426 1427 1425 1424 1423 1423 1423 1424 1421 1422 1418 1420 1418 1417 1420 1423 1421 1420 1423 1419 1412 1434 1427 1450 1440 1449 1456 1466 1464 1466 1467 1466 1465 1463